Location: Newark
(34.3481°N, 134.0494°E)
Time: 21:00:10
(UTC+00:00)

Vanguard 3 - Pass Details

Date: 22 January 2020
Orbit: 508 x 3263 km, 33.3° (Epoch: 25 February)

Event Time Altitude Azimuth Distance (km) Brightness Sun altitude
Rises 09:01:39 0° 239° (WSW) 7,066 13.9 -8.3°
Reaches altitude 10° 09:06:18 10° 237° (WSW) 6,156 13.1 -9.2°
Maximum altitude 09:26:10 69° 159° (SSE) 3,116 10.0 -13.2°
Enters shadow 09:38:35 19° 82° (E) 4,271 10.1 -15.6°
